Index of /20260424/WXO-DD/model_rdps/10km/00/025
Name Last modified Size Description
Parent Directory -
20260424T00Z_MSC_RDPS_AbsoluteVorticity_IsbL-0250_RLatLon0.09_PT025H.grib2 2026-04-24 02:48 629K
20260424T00Z_MSC_RDPS_AbsoluteVorticity_IsbL-0500_RLatLon0.09_PT025H.grib2 2026-04-24 02:48 574K
20260424T00Z_MSC_RDPS_AbsoluteVorticity_IsbL-0700_RLatLon0.09_PT025H.grib2 2026-04-24 02:48 633K
20260424T00Z_MSC_RDPS_AbsoluteVorticity_IsbL-0850_RLatLon0.09_PT025H.grib2 2026-04-24 02:48 785K
20260424T00Z_MSC_RDPS_AirTemp_AGL-120m_RLatLon0.09_PT025H.grib2 2026-04-24 02:48 389K
20260424T00Z_MSC_RDPS_AirTemp_AGL-2m_RLatLon0.09_PT025H.grib2 2026-04-24 02:48 623K
20260424T00Z_MSC_RDPS_AirTemp_AGL-40m_RLatLon0.09_PT025H.grib2 2026-04-24 02:48 399K
20260424T00Z_MSC_RDPS_AirTemp_AGL-80m_RLatLon0.09_PT025H.grib2 2026-04-24 02:48 393K
20260424T00Z_MSC_RDPS_AirTemp_IsbL-0001_RLatLon0.09_PT025H.grib2 2026-04-24 02:48 305K
20260424T00Z_MSC_RDPS_AirTemp_IsbL-0005_RLatLon0.09_PT025H.grib2 2026-04-24 02:48 333K
20260424T00Z_MSC_RDPS_AirTemp_IsbL-0010_RLatLon0.09_PT025H.grib2 2026-04-24 02:48 305K
20260424T00Z_MSC_RDPS_AirTemp_IsbL-0020_RLatLon0.09_PT025H.grib2 2026-04-24 02:48 325K
20260424T00Z_MSC_RDPS_AirTemp_IsbL-0030_RLatLon0.09_PT025H.grib2 2026-04-24 02:48 349K
20260424T00Z_MSC_RDPS_AirTemp_IsbL-0050_RLatLon0.09_PT025H.grib2 2026-04-24 02:48 329K
20260424T00Z_MSC_RDPS_AirTemp_IsbL-0100_RLatLon0.09_PT025H.grib2 2026-04-24 02:48 433K
20260424T00Z_MSC_RDPS_AirTemp_IsbL-0150_RLatLon0.09_PT025H.grib2 2026-04-24 02:48 438K
20260424T00Z_MSC_RDPS_AirTemp_IsbL-0175_RLatLon0.09_PT025H.grib2 2026-04-24 02:48 433K
20260424T00Z_MSC_RDPS_AirTemp_IsbL-0200_RLatLon0.09_PT025H.grib2 2026-04-24 02:48 432K
20260424T00Z_MSC_RDPS_AirTemp_IsbL-0225_RLatLon0.09_PT025H.grib2 2026-04-24 02:48 428K
20260424T00Z_MSC_RDPS_AirTemp_IsbL-0250_RLatLon0.09_PT025H.grib2 2026-04-24 02:48 431K
20260424T00Z_MSC_RDPS_AirTemp_IsbL-0275_RLatLon0.09_PT025H.grib2 2026-04-24 02:48 411K
20260424T00Z_MSC_RDPS_AirTemp_IsbL-0300_RLatLon0.09_PT025H.grib2 2026-04-24 02:48 418K
20260424T00Z_MSC_RDPS_AirTemp_IsbL-0350_RLatLon0.09_PT025H.grib2 2026-04-24 02:48 431K
20260424T00Z_MSC_RDPS_AirTemp_IsbL-0400_RLatLon0.09_PT025H.grib2 2026-04-24 02:48 431K
20260424T00Z_MSC_RDPS_AirTemp_IsbL-0450_RLatLon0.09_PT025H.grib2 2026-04-24 02:48 404K
20260424T00Z_MSC_RDPS_AirTemp_IsbL-0500_RLatLon0.09_PT025H.grib2 2026-04-24 02:48 418K
20260424T00Z_MSC_RDPS_AirTemp_IsbL-0550_RLatLon0.09_PT025H.grib2 2026-04-24 02:48 437K
20260424T00Z_MSC_RDPS_AirTemp_IsbL-0600_RLatLon0.09_PT025H.grib2 2026-04-24 02:48 455K
20260424T00Z_MSC_RDPS_AirTemp_IsbL-0650_RLatLon0.09_PT025H.grib2 2026-04-24 02:48 468K
20260424T00Z_MSC_RDPS_AirTemp_IsbL-0700_RLatLon0.09_PT025H.grib2 2026-04-24 02:48 492K
20260424T00Z_MSC_RDPS_AirTemp_IsbL-0750_RLatLon0.09_PT025H.grib2 2026-04-24 02:48 413K
20260424T00Z_MSC_RDPS_AirTemp_IsbL-0800_RLatLon0.09_PT025H.grib2 2026-04-24 02:48 453K
20260424T00Z_MSC_RDPS_AirTemp_IsbL-0850_RLatLon0.09_PT025H.grib2 2026-04-24 02:48 494K
20260424T00Z_MSC_RDPS_AirTemp_IsbL-0875_RLatLon0.09_PT025H.grib2 2026-04-24 02:48 509K
20260424T00Z_MSC_RDPS_AirTemp_IsbL-0900_RLatLon0.09_PT025H.grib2 2026-04-24 02:48 516K
20260424T00Z_MSC_RDPS_AirTemp_IsbL-0925_RLatLon0.09_PT025H.grib2 2026-04-24 02:48 515K
20260424T00Z_MSC_RDPS_AirTemp_IsbL-0950_RLatLon0.09_PT025H.grib2 2026-04-24 02:48 527K
20260424T00Z_MSC_RDPS_AirTemp_IsbL-0970_RLatLon0.09_PT025H.grib2 2026-04-24 02:48 527K
20260424T00Z_MSC_RDPS_AirTemp_IsbL-0985_RLatLon0.09_PT025H.grib2 2026-04-24 02:48 518K
20260424T00Z_MSC_RDPS_AirTemp_IsbL-1000_RLatLon0.09_PT025H.grib2 2026-04-24 02:48 501K
20260424T00Z_MSC_RDPS_AirTemp_IsbL-1015_RLatLon0.09_PT025H.grib2 2026-04-24 02:48 499K
20260424T00Z_MSC_RDPS_Albedo_Sfc_RLatLon0.09_PT025H.grib2 2026-04-24 02:48 164K
20260424T00Z_MSC_RDPS_CAPE_Sfc_RLatLon0.09_PT025H.grib2 2026-04-24 02:48 1.7M
20260424T00Z_MSC_RDPS_CIN_Sfc_RLatLon0.09_PT025H.grib2 2026-04-24 02:48 1.2M
20260424T00Z_MSC_RDPS_CloudWater_EAtm_RLatLon0.09_PT025H.grib2 2026-04-24 02:48 220K
20260424T00Z_MSC_RDPS_ConvectivePrecip-Accum_Sfc_RLatLon0.09_PT025H.grib2 2026-04-24 02:48 889K
20260424T00Z_MSC_RDPS_DewPointDepression_AGL-2m_RLatLon0.09_PT025H.grib2 2026-04-24 02:48 406K
20260424T00Z_MSC_RDPS_DewPointDepression_IsbL-0001_RLatLon0.09_PT025H.grib2 2026-04-24 02:48 193
20260424T00Z_MSC_RDPS_DewPointDepression_IsbL-0005_RLatLon0.09_PT025H.grib2 2026-04-24 02:48 193
20260424T00Z_MSC_RDPS_DewPointDepression_IsbL-0010_RLatLon0.09_PT025H.grib2 2026-04-24 02:48 193
20260424T00Z_MSC_RDPS_DewPointDepression_IsbL-0020_RLatLon0.09_PT025H.grib2 2026-04-24 02:48 193
20260424T00Z_MSC_RDPS_DewPointDepression_IsbL-0030_RLatLon0.09_PT025H.grib2 2026-04-24 02:48 193
20260424T00Z_MSC_RDPS_DewPointDepression_IsbL-0050_RLatLon0.09_PT025H.grib2 2026-04-24 02:48 88K
20260424T00Z_MSC_RDPS_DewPointDepression_IsbL-0100_RLatLon0.09_PT025H.grib2 2026-04-24 02:48 132K
20260424T00Z_MSC_RDPS_DewPointDepression_IsbL-0150_RLatLon0.09_PT025H.grib2 2026-04-24 02:48 156K
20260424T00Z_MSC_RDPS_DewPointDepression_IsbL-0175_RLatLon0.09_PT025H.grib2 2026-04-24 02:48 195K
20260424T00Z_MSC_RDPS_DewPointDepression_IsbL-0200_RLatLon0.09_PT025H.grib2 2026-04-24 02:48 228K
20260424T00Z_MSC_RDPS_DewPointDepression_IsbL-0225_RLatLon0.09_PT025H.grib2 2026-04-24 02:48 268K
20260424T00Z_MSC_RDPS_DewPointDepression_IsbL-0250_RLatLon0.09_PT025H.grib2 2026-04-24 02:48 304K
20260424T00Z_MSC_RDPS_DewPointDepression_IsbL-0275_RLatLon0.09_PT025H.grib2 2026-04-24 02:48 316K
20260424T00Z_MSC_RDPS_DewPointDepression_IsbL-0300_RLatLon0.09_PT025H.grib2 2026-04-24 02:48 339K
20260424T00Z_MSC_RDPS_DewPointDepression_IsbL-0350_RLatLon0.09_PT025H.grib2 2026-04-24 02:48 349K
20260424T00Z_MSC_RDPS_DewPointDepression_IsbL-0400_RLatLon0.09_PT025H.grib2 2026-04-24 02:48 363K
20260424T00Z_MSC_RDPS_DewPointDepression_IsbL-0450_RLatLon0.09_PT025H.grib2 2026-04-24 02:48 371K
20260424T00Z_MSC_RDPS_DewPointDepression_IsbL-0500_RLatLon0.09_PT025H.grib2 2026-04-24 02:48 380K
20260424T00Z_MSC_RDPS_DewPointDepression_IsbL-0550_RLatLon0.09_PT025H.grib2 2026-04-24 02:48 391K
20260424T00Z_MSC_RDPS_DewPointDepression_IsbL-0600_RLatLon0.09_PT025H.grib2 2026-04-24 02:48 398K
20260424T00Z_MSC_RDPS_DewPointDepression_IsbL-0650_RLatLon0.09_PT025H.grib2 2026-04-24 02:48 398K
20260424T00Z_MSC_RDPS_DewPointDepression_IsbL-0700_RLatLon0.09_PT025H.grib2 2026-04-24 02:48 408K
20260424T00Z_MSC_RDPS_DewPointDepression_IsbL-0750_RLatLon0.09_PT025H.grib2 2026-04-24 02:48 427K
20260424T00Z_MSC_RDPS_DewPointDepression_IsbL-0800_RLatLon0.09_PT025H.grib2 2026-04-24 02:48 451K
20260424T00Z_MSC_RDPS_DewPointDepression_IsbL-0850_RLatLon0.09_PT025H.grib2 2026-04-24 02:48 467K
20260424T00Z_MSC_RDPS_DewPointDepression_IsbL-0875_RLatLon0.09_PT025H.grib2 2026-04-24 02:48 469K
20260424T00Z_MSC_RDPS_DewPointDepression_IsbL-0900_RLatLon0.09_PT025H.grib2 2026-04-24 02:48 465K
20260424T00Z_MSC_RDPS_DewPointDepression_IsbL-0925_RLatLon0.09_PT025H.grib2 2026-04-24 02:48 453K
20260424T00Z_MSC_RDPS_DewPointDepression_IsbL-0950_RLatLon0.09_PT025H.grib2 2026-04-24 02:48 442K
20260424T00Z_MSC_RDPS_DewPointDepression_IsbL-0970_RLatLon0.09_PT025H.grib2 2026-04-24 02:48 433K
20260424T00Z_MSC_RDPS_DewPointDepression_IsbL-0985_RLatLon0.09_PT025H.grib2 2026-04-24 02:48 426K
20260424T00Z_MSC_RDPS_DewPointDepression_IsbL-1000_RLatLon0.09_PT025H.grib2 2026-04-24 02:48 420K
20260424T00Z_MSC_RDPS_DewPointDepression_IsbL-1015_RLatLon0.09_PT025H.grib2 2026-04-24 02:48 407K
20260424T00Z_MSC_RDPS_DewPoint_AGL-2m_RLatLon0.09_PT025H.grib2 2026-04-24 02:48 394K
20260424T00Z_MSC_RDPS_DownwardLongwaveRadiationFlux-Accum_Sfc_RLatLon0.09_PT025H.grib2 2026-04-24 02:48 441K
20260424T00Z_MSC_RDPS_DownwardShortwaveRadiationFlux-Accum_NTAtm_RLatLon0.09_PT025H.grib2 2026-04-24 02:48 148K
20260424T00Z_MSC_RDPS_DownwardShortwaveRadiationFlux-Accum_Sfc_RLatLon0.09_PT025H.grib2 2026-04-24 02:48 631K
20260424T00Z_MSC_RDPS_FreezingRain-Accum1h_Sfc_RLatLon0.09_PT025H.grib2 2026-04-24 02:48 22K
20260424T00Z_MSC_RDPS_FreezingRain-Accum_Sfc_RLatLon0.09_PT025H.grib2 2026-04-24 02:48 96K
20260424T00Z_MSC_RDPS_GeopotentialHeight_IsbL-0001_RLatLon0.09_PT025H.grib2 2026-04-24 02:48 271K
20260424T00Z_MSC_RDPS_GeopotentialHeight_IsbL-0005_RLatLon0.09_PT025H.grib2 2026-04-24 02:48 337K
20260424T00Z_MSC_RDPS_GeopotentialHeight_IsbL-0010_RLatLon0.09_PT025H.grib2 2026-04-24 02:48 306K
20260424T00Z_MSC_RDPS_GeopotentialHeight_IsbL-0020_RLatLon0.09_PT025H.grib2 2026-04-24 02:48 306K
20260424T00Z_MSC_RDPS_GeopotentialHeight_IsbL-0030_RLatLon0.09_PT025H.grib2 2026-04-24 02:48 405K
20260424T00Z_MSC_RDPS_GeopotentialHeight_IsbL-0050_RLatLon0.09_PT025H.grib2 2026-04-24 02:48 311K
20260424T00Z_MSC_RDPS_GeopotentialHeight_IsbL-0100_RLatLon0.09_PT025H.grib2 2026-04-24 02:48 290K
20260424T00Z_MSC_RDPS_GeopotentialHeight_IsbL-0150_RLatLon0.09_PT025H.grib2 2026-04-24 02:48 232K
20260424T00Z_MSC_RDPS_GeopotentialHeight_IsbL-0175_RLatLon0.09_PT025H.grib2 2026-04-24 02:48 236K
20260424T00Z_MSC_RDPS_GeopotentialHeight_IsbL-0200_RLatLon0.09_PT025H.grib2 2026-04-24 02:48 240K
20260424T00Z_MSC_RDPS_GeopotentialHeight_IsbL-0225_RLatLon0.09_PT025H.grib2 2026-04-24 02:48 272K
20260424T00Z_MSC_RDPS_GeopotentialHeight_IsbL-0250_RLatLon0.09_PT025H.grib2 2026-04-24 02:48 273K
20260424T00Z_MSC_RDPS_GeopotentialHeight_IsbL-0275_RLatLon0.09_PT025H.grib2 2026-04-24 02:48 272K
20260424T00Z_MSC_RDPS_GeopotentialHeight_IsbL-0300_RLatLon0.09_PT025H.grib2 2026-04-24 02:48 240K
20260424T00Z_MSC_RDPS_GeopotentialHeight_IsbL-0350_RLatLon0.09_PT025H.grib2 2026-04-24 02:48 236K
20260424T00Z_MSC_RDPS_GeopotentialHeight_IsbL-0400_RLatLon0.09_PT025H.grib2 2026-04-24 02:48 233K
20260424T00Z_MSC_RDPS_GeopotentialHeight_IsbL-0450_RLatLon0.09_PT025H.grib2 2026-04-24 02:48 300K
20260424T00Z_MSC_RDPS_GeopotentialHeight_IsbL-0500_RLatLon0.09_PT025H.grib2 2026-04-24 02:48 295K
20260424T00Z_MSC_RDPS_GeopotentialHeight_IsbL-0550_RLatLon0.09_PT025H.grib2 2026-04-24 02:48 292K
20260424T00Z_MSC_RDPS_GeopotentialHeight_IsbL-0600_RLatLon0.09_PT025H.grib2 2026-04-24 02:48 260K
20260424T00Z_MSC_RDPS_GeopotentialHeight_IsbL-0650_RLatLon0.09_PT025H.grib2 2026-04-24 02:48 258K
20260424T00Z_MSC_RDPS_GeopotentialHeight_IsbL-0700_RLatLon0.09_PT025H.grib2 2026-04-24 02:48 338K
20260424T00Z_MSC_RDPS_GeopotentialHeight_IsbL-0750_RLatLon0.09_PT025H.grib2 2026-04-24 02:48 339K
20260424T00Z_MSC_RDPS_GeopotentialHeight_IsbL-0800_RLatLon0.09_PT025H.grib2 2026-04-24 02:48 344K
20260424T00Z_MSC_RDPS_GeopotentialHeight_IsbL-0850_RLatLon0.09_PT025H.grib2 2026-04-24 02:48 351K
20260424T00Z_MSC_RDPS_GeopotentialHeight_IsbL-0875_RLatLon0.09_PT025H.grib2 2026-04-24 02:48 352K
20260424T00Z_MSC_RDPS_GeopotentialHeight_IsbL-0900_RLatLon0.09_PT025H.grib2 2026-04-24 02:48 358K
20260424T00Z_MSC_RDPS_GeopotentialHeight_IsbL-0925_RLatLon0.09_PT025H.grib2 2026-04-24 02:48 358K
20260424T00Z_MSC_RDPS_GeopotentialHeight_IsbL-0950_RLatLon0.09_PT025H.grib2 2026-04-24 02:48 364K
20260424T00Z_MSC_RDPS_GeopotentialHeight_IsbL-0970_RLatLon0.09_PT025H.grib2 2026-04-24 02:48 370K
20260424T00Z_MSC_RDPS_GeopotentialHeight_IsbL-0985_RLatLon0.09_PT025H.grib2 2026-04-24 02:48 378K
20260424T00Z_MSC_RDPS_GeopotentialHeight_IsbL-1000_RLatLon0.09_PT025H.grib2 2026-04-24 02:48 299K
20260424T00Z_MSC_RDPS_GeopotentialHeight_IsbL-1015_RLatLon0.09_PT025H.grib2 2026-04-24 02:48 309K
20260424T00Z_MSC_RDPS_Humidex_Sfc_RLatLon0.09_PT025H.grib2 2026-04-24 02:48 2.4M
20260424T00Z_MSC_RDPS_IcePellets-Accum1h_Sfc_RLatLon0.09_PT025H.grib2 2026-04-24 02:48 23K
20260424T00Z_MSC_RDPS_IcePellets-Accum_Sfc_RLatLon0.09_PT025H.grib2 2026-04-24 02:48 53K
20260424T00Z_MSC_RDPS_KIndex_Sfc_RLatLon0.09_PT025H.grib2 2026-04-24 02:48 2.3M
20260424T00Z_MSC_RDPS_LatentHeatNetFlux_Sfc_RLatLon0.09_PT025H.grib2 2026-04-24 02:48 331K
20260424T00Z_MSC_RDPS_LiftedIndex-MU-VT_IsbL-0500_RLatLon0.09_PT025H.grib2 2026-04-24 02:48 2.4M
20260424T00Z_MSC_RDPS_NetLongwaveRadiationFlux-Accum_Sfc_RLatLon0.09_PT025H.grib2 2026-04-24 02:48 583K
20260424T00Z_MSC_RDPS_NetShortwaveRadiationFlux-Accum_Sfc_RLatLon0.09_PT025H.grib2 2026-04-24 02:48 638K
20260424T00Z_MSC_RDPS_PlanetaryBoundaryLayerHeight_Sfc_RLatLon0.09_PT025H.grib2 2026-04-24 02:48 1.0M
20260424T00Z_MSC_RDPS_Precip-Accum1h_Sfc_RLatLon0.09_PT025H.grib2 2026-04-24 02:48 1.2M
20260424T00Z_MSC_RDPS_Precip-Accum_Sfc_RLatLon0.09_PT025H.grib2 2026-04-24 02:48 1.8M
20260424T00Z_MSC_RDPS_PrecipRate_Sfc_RLatLon0.09_PT025H.grib2 2026-04-24 02:48 180K
20260424T00Z_MSC_RDPS_PrecipType-Instant_Sfc_RLatLon0.09_PT025H.grib2 2026-04-24 02:48 575K
20260424T00Z_MSC_RDPS_Pressure-Trend3h_Sfc_RLatLon0.09_PT025H.grib2 2026-04-24 02:48 1.2M
20260424T00Z_MSC_RDPS_Pressure_MSL_RLatLon0.09_PT025H.grib2 2026-04-24 02:48 326K
20260424T00Z_MSC_RDPS_Pressure_PVU-1.5_RLatLon0.09_PT025H.grib2 2026-04-24 02:48 2.3M
20260424T00Z_MSC_RDPS_Pressure_PVU-1_RLatLon0.09_PT025H.grib2 2026-04-24 02:48 2.4M
20260424T00Z_MSC_RDPS_Pressure_PVU-2_RLatLon0.09_PT025H.grib2 2026-04-24 02:48 2.4M
20260424T00Z_MSC_RDPS_Pressure_Sfc_RLatLon0.09_PT025H.grib2 2026-04-24 02:48 499K
20260424T00Z_MSC_RDPS_RadiativeTemp_Sfc_RLatLon0.09_PT025H.grib2 2026-04-24 02:48 310K
20260424T00Z_MSC_RDPS_Rain-Accum1h_Sfc_RLatLon0.09_PT025H.grib2 2026-04-24 02:48 562K
20260424T00Z_MSC_RDPS_Rain-Accum_Sfc_RLatLon0.09_PT025H.grib2 2026-04-24 02:48 1.3M
20260424T00Z_MSC_RDPS_RelativeHumidity_AGL-2m_RLatLon0.09_PT025H.grib2 2026-04-24 02:48 1.0M
20260424T00Z_MSC_RDPS_RelativeHumidity_IsbL-0010_RLatLon0.09_PT025H.grib2 2026-04-24 02:48 634K
20260424T00Z_MSC_RDPS_RelativeHumidity_IsbL-0020_RLatLon0.09_PT025H.grib2 2026-04-24 02:48 659K
20260424T00Z_MSC_RDPS_RelativeHumidity_IsbL-0030_RLatLon0.09_PT025H.grib2 2026-04-24 02:48 550K
20260424T00Z_MSC_RDPS_RelativeHumidity_IsbL-0050_RLatLon0.09_PT025H.grib2 2026-04-24 02:48 381K
20260424T00Z_MSC_RDPS_RelativeHumidity_IsbL-0100_RLatLon0.09_PT025H.grib2 2026-04-24 02:48 273K
20260424T00Z_MSC_RDPS_RelativeHumidity_IsbL-0150_RLatLon0.09_PT025H.grib2 2026-04-24 02:48 404K
20260424T00Z_MSC_RDPS_RelativeHumidity_IsbL-0175_RLatLon0.09_PT025H.grib2 2026-04-24 02:48 499K
20260424T00Z_MSC_RDPS_RelativeHumidity_IsbL-0200_RLatLon0.09_PT025H.grib2 2026-04-24 02:48 580K
20260424T00Z_MSC_RDPS_RelativeHumidity_IsbL-0225_RLatLon0.09_PT025H.grib2 2026-04-24 02:48 650K
20260424T00Z_MSC_RDPS_RelativeHumidity_IsbL-0250_RLatLon0.09_PT025H.grib2 2026-04-24 02:48 714K
20260424T00Z_MSC_RDPS_RelativeHumidity_IsbL-0275_RLatLon0.09_PT025H.grib2 2026-04-24 02:48 737K
20260424T00Z_MSC_RDPS_RelativeHumidity_IsbL-0300_RLatLon0.09_PT025H.grib2 2026-04-24 02:48 777K
20260424T00Z_MSC_RDPS_RelativeHumidity_IsbL-0350_RLatLon0.09_PT025H.grib2 2026-04-24 02:48 800K
20260424T00Z_MSC_RDPS_RelativeHumidity_IsbL-0400_RLatLon0.09_PT025H.grib2 2026-04-24 02:48 817K
20260424T00Z_MSC_RDPS_RelativeHumidity_IsbL-0450_RLatLon0.09_PT025H.grib2 2026-04-24 02:48 825K
20260424T00Z_MSC_RDPS_RelativeHumidity_IsbL-0500_RLatLon0.09_PT025H.grib2 2026-04-24 02:48 836K
20260424T00Z_MSC_RDPS_RelativeHumidity_IsbL-0550_RLatLon0.09_PT025H.grib2 2026-04-24 02:48 854K
20260424T00Z_MSC_RDPS_RelativeHumidity_IsbL-0600_RLatLon0.09_PT025H.grib2 2026-04-24 02:48 880K
20260424T00Z_MSC_RDPS_RelativeHumidity_IsbL-0650_RLatLon0.09_PT025H.grib2 2026-04-24 02:48 886K
20260424T00Z_MSC_RDPS_RelativeHumidity_IsbL-0700_RLatLon0.09_PT025H.grib2 2026-04-24 02:48 906K
20260424T00Z_MSC_RDPS_RelativeHumidity_IsbL-0750_RLatLon0.09_PT025H.grib2 2026-04-24 02:48 945K
20260424T00Z_MSC_RDPS_RelativeHumidity_IsbL-0800_RLatLon0.09_PT025H.grib2 2026-04-24 02:48 1.0M
20260424T00Z_MSC_RDPS_RelativeHumidity_IsbL-0850_RLatLon0.09_PT025H.grib2 2026-04-24 02:48 1.0M
20260424T00Z_MSC_RDPS_RelativeHumidity_IsbL-0875_RLatLon0.09_PT025H.grib2 2026-04-24 02:48 1.1M
20260424T00Z_MSC_RDPS_RelativeHumidity_IsbL-0900_RLatLon0.09_PT025H.grib2 2026-04-24 02:48 1.1M
20260424T00Z_MSC_RDPS_RelativeHumidity_IsbL-0925_RLatLon0.09_PT025H.grib2 2026-04-24 02:48 1.1M
20260424T00Z_MSC_RDPS_RelativeHumidity_IsbL-0950_RLatLon0.09_PT025H.grib2 2026-04-24 02:48 1.1M
20260424T00Z_MSC_RDPS_RelativeHumidity_IsbL-0970_RLatLon0.09_PT025H.grib2 2026-04-24 02:48 1.0M
20260424T00Z_MSC_RDPS_RelativeHumidity_IsbL-0985_RLatLon0.09_PT025H.grib2 2026-04-24 02:48 1.0M
20260424T00Z_MSC_RDPS_RelativeHumidity_IsbL-1000_RLatLon0.09_PT025H.grib2 2026-04-24 02:48 1.0M
20260424T00Z_MSC_RDPS_RelativeHumidity_IsbL-1015_RLatLon0.09_PT025H.grib2 2026-04-24 02:48 1.0M
20260424T00Z_MSC_RDPS_Runoff-Accum_Sfc_RLatLon0.09_PT025H.grib2 2026-04-24 02:48 57K
20260424T00Z_MSC_RDPS_SWEATIndex_Sfc_RLatLon0.09_PT025H.grib2 2026-04-24 02:48 2.4M
20260424T00Z_MSC_RDPS_SeeingIndex_EAtm_RLatLon0.09_PT025H.grib2 2026-04-24 02:48 1.0M
20260424T00Z_MSC_RDPS_SensibleHeatNetFlux_Sfc_RLatLon0.09_PT025H.grib2 2026-04-24 02:48 296K
20260424T00Z_MSC_RDPS_ShowalterIndex_IsbL-0500_RLatLon0.09_PT025H.grib2 2026-04-24 02:48 2.6M
20260424T00Z_MSC_RDPS_SkyTransparencyIndex_EAtm_RLatLon0.09_PT025H.grib2 2026-04-24 02:48 727K
20260424T00Z_MSC_RDPS_Snow-Accum1h_Sfc_RLatLon0.09_PT025H.grib2 2026-04-24 02:48 521K
20260424T00Z_MSC_RDPS_Snow-Accum_Sfc_RLatLon0.09_PT025H.grib2 2026-04-24 02:48 768K
20260424T00Z_MSC_RDPS_SnowDensity_Sfc_RLatLon0.09_PT025H.grib2 2026-04-24 02:48 176K
20260424T00Z_MSC_RDPS_SnowDepth_Sfc_RLatLon0.09_PT025H.grib2 2026-04-24 02:48 717K
20260424T00Z_MSC_RDPS_SoilTemp_DBS-0to10cm_RLatLon0.09_PT025H.grib2 2026-04-24 02:48 225K
20260424T00Z_MSC_RDPS_SoilTemp_Sfc_RLatLon0.09_PT025H.grib2 2026-04-24 02:48 258K
20260424T00Z_MSC_RDPS_SoilVolumetricIceContent_Sfc_RLatLon0.09_PT025H.grib2 2026-04-24 02:48 168K
20260424T00Z_MSC_RDPS_SoilVolumetricWaterContent_DBS-0to10cm_RLatLon0.09_PT025H.grib2 2026-04-24 02:48 253K
20260424T00Z_MSC_RDPS_SoilVolumetricWaterContent_DBS-0to1cm_RLatLon0.09_PT025H.grib2 2026-04-24 02:48 337K
20260424T00Z_MSC_RDPS_SpecificHumidity_AGL-120m_RLatLon0.09_PT025H.grib2 2026-04-24 02:48 478K
20260424T00Z_MSC_RDPS_SpecificHumidity_AGL-2m_RLatLon0.09_PT025H.grib2 2026-04-24 02:48 646K
20260424T00Z_MSC_RDPS_SpecificHumidity_AGL-40m_RLatLon0.09_PT025H.grib2 2026-04-24 02:48 484K
20260424T00Z_MSC_RDPS_SpecificHumidity_AGL-80m_RLatLon0.09_PT025H.grib2 2026-04-24 02:48 480K
20260424T00Z_MSC_RDPS_SpecificHumidity_IsbL-0001_RLatLon0.09_PT025H.grib2 2026-04-24 02:48 339K
20260424T00Z_MSC_RDPS_SpecificHumidity_IsbL-0005_RLatLon0.09_PT025H.grib2 2026-04-24 02:48 459K
20260424T00Z_MSC_RDPS_SpecificHumidity_IsbL-0010_RLatLon0.09_PT025H.grib2 2026-04-24 02:48 395K
20260424T00Z_MSC_RDPS_SpecificHumidity_IsbL-0020_RLatLon0.09_PT025H.grib2 2026-04-24 02:48 386K
20260424T00Z_MSC_RDPS_SpecificHumidity_IsbL-0030_RLatLon0.09_PT025H.grib2 2026-04-24 02:48 482K
20260424T00Z_MSC_RDPS_SpecificHumidity_IsbL-0050_RLatLon0.09_PT025H.grib2 2026-04-24 02:48 479K
20260424T00Z_MSC_RDPS_SpecificHumidity_IsbL-0100_RLatLon0.09_PT025H.grib2 2026-04-24 02:48 420K
20260424T00Z_MSC_RDPS_SpecificHumidity_IsbL-0150_RLatLon0.09_PT025H.grib2 2026-04-24 02:48 480K
20260424T00Z_MSC_RDPS_SpecificHumidity_IsbL-0175_RLatLon0.09_PT025H.grib2 2026-04-24 02:48 451K
20260424T00Z_MSC_RDPS_SpecificHumidity_IsbL-0200_RLatLon0.09_PT025H.grib2 2026-04-24 02:48 464K
20260424T00Z_MSC_RDPS_SpecificHumidity_IsbL-0225_RLatLon0.09_PT025H.grib2 2026-04-24 02:48 578K
20260424T00Z_MSC_RDPS_SpecificHumidity_IsbL-0250_RLatLon0.09_PT025H.grib2 2026-04-24 02:48 576K
20260424T00Z_MSC_RDPS_SpecificHumidity_IsbL-0275_RLatLon0.09_PT025H.grib2 2026-04-24 02:48 490K
20260424T00Z_MSC_RDPS_SpecificHumidity_IsbL-0300_RLatLon0.09_PT025H.grib2 2026-04-24 02:48 561K
20260424T00Z_MSC_RDPS_SpecificHumidity_IsbL-0350_RLatLon0.09_PT025H.grib2 2026-04-24 02:48 553K
20260424T00Z_MSC_RDPS_SpecificHumidity_IsbL-0400_RLatLon0.09_PT025H.grib2 2026-04-24 02:48 536K
20260424T00Z_MSC_RDPS_SpecificHumidity_IsbL-0450_RLatLon0.09_PT025H.grib2 2026-04-24 02:48 590K
20260424T00Z_MSC_RDPS_SpecificHumidity_IsbL-0500_RLatLon0.09_PT025H.grib2 2026-04-24 02:48 530K
20260424T00Z_MSC_RDPS_SpecificHumidity_IsbL-0550_RLatLon0.09_PT025H.grib2 2026-04-24 02:48 586K
20260424T00Z_MSC_RDPS_SpecificHumidity_IsbL-0600_RLatLon0.09_PT025H.grib2 2026-04-24 02:48 652K
20260424T00Z_MSC_RDPS_SpecificHumidity_IsbL-0650_RLatLon0.09_PT025H.grib2 2026-04-24 02:48 564K
20260424T00Z_MSC_RDPS_SpecificHumidity_IsbL-0700_RLatLon0.09_PT025H.grib2 2026-04-24 02:48 605K
20260424T00Z_MSC_RDPS_SpecificHumidity_IsbL-0750_RLatLon0.09_PT025H.grib2 2026-04-24 02:48 657K
20260424T00Z_MSC_RDPS_SpecificHumidity_IsbL-0800_RLatLon0.09_PT025H.grib2 2026-04-24 02:48 735K
20260424T00Z_MSC_RDPS_SpecificHumidity_IsbL-0850_RLatLon0.09_PT025H.grib2 2026-04-24 02:48 798K
20260424T00Z_MSC_RDPS_SpecificHumidity_IsbL-0875_RLatLon0.09_PT025H.grib2 2026-04-24 02:48 822K
20260424T00Z_MSC_RDPS_SpecificHumidity_IsbL-0900_RLatLon0.09_PT025H.grib2 2026-04-24 02:48 697K
20260424T00Z_MSC_RDPS_SpecificHumidity_IsbL-0925_RLatLon0.09_PT025H.grib2 2026-04-24 02:48 699K
20260424T00Z_MSC_RDPS_SpecificHumidity_IsbL-0950_RLatLon0.09_PT025H.grib2 2026-04-24 02:48 695K
20260424T00Z_MSC_RDPS_SpecificHumidity_IsbL-0970_RLatLon0.09_PT025H.grib2 2026-04-24 02:48 685K
20260424T00Z_MSC_RDPS_SpecificHumidity_IsbL-0985_RLatLon0.09_PT025H.grib2 2026-04-24 02:48 676K
20260424T00Z_MSC_RDPS_SpecificHumidity_IsbL-1000_RLatLon0.09_PT025H.grib2 2026-04-24 02:48 667K
20260424T00Z_MSC_RDPS_SpecificHumidity_IsbL-1015_RLatLon0.09_PT025H.grib2 2026-04-24 02:48 655K
20260424T00Z_MSC_RDPS_SpecificHumidity_Sfc_RLatLon0.09_PT025H.grib2 2026-04-24 02:48 324K
20260424T00Z_MSC_RDPS_StormRelativeHelicity_EtaL-10000_RLatLon0.09_PT025H.grib2 2026-04-24 02:48 1.1M
20260424T00Z_MSC_RDPS_StormSeverityIndex_EtaL-10000_RLatLon0.09_PT025H.grib2 2026-04-24 02:48 1.2M
20260424T00Z_MSC_RDPS_Thickness_IsbL-0850to0700_RLatLon0.09_PT025H.grib2 2026-04-24 02:48 177K
20260424T00Z_MSC_RDPS_Thickness_IsbL-1000to0500_RLatLon0.09_PT025H.grib2 2026-04-24 02:48 199K
20260424T00Z_MSC_RDPS_Thickness_IsbL-1000to0850_RLatLon0.09_PT025H.grib2 2026-04-24 02:48 185K
20260424T00Z_MSC_RDPS_TotalCloudCover_Sfc_RLatLon0.09_PT025H.grib2 2026-04-24 02:48 651K
20260424T00Z_MSC_RDPS_TotalTotalsIndex_Sfc_RLatLon0.09_PT025H.grib2 2026-04-24 02:48 2.4M
20260424T00Z_MSC_RDPS_UVIndex-ClearSky_Sfc_RLatLon0.09_PT025H.grib2 2026-04-24 02:48 137K
20260424T00Z_MSC_RDPS_UVIndex_Sfc_RLatLon0.09_PT025H.grib2 2026-04-24 02:48 300K
20260424T00Z_MSC_RDPS_UpwardLongwaveRadiationFlux_NTAtm_RLatLon0.09_PT025H.grib2 2026-04-24 02:48 493K
20260424T00Z_MSC_RDPS_UpwardShortwaveRadiationFlux_NTAtm_RLatLon0.09_PT025H.grib2 2026-04-24 02:48 277K
20260424T00Z_MSC_RDPS_VerticalVelocity_IsbL-0250_RLatLon0.09_PT025H.grib2 2026-04-24 02:48 450K
20260424T00Z_MSC_RDPS_VerticalVelocity_IsbL-0500_RLatLon0.09_PT025H.grib2 2026-04-24 02:48 550K
20260424T00Z_MSC_RDPS_VerticalVelocity_IsbL-0700_RLatLon0.09_PT025H.grib2 2026-04-24 02:48 603K
20260424T00Z_MSC_RDPS_VerticalVelocity_IsbL-0850_RLatLon0.09_PT025H.grib2 2026-04-24 02:48 700K
20260424T00Z_MSC_RDPS_VerticalWindShear_EtaL-6500_RLatLon0.09_PT025H.grib2 2026-04-24 02:48 1.2M
20260424T00Z_MSC_RDPS_WindChill_Sfc_RLatLon0.09_PT025H.grib2 2026-04-24 02:48 1.1M
20260424T00Z_MSC_RDPS_WindDir_AGL-10m_RLatLon0.09_PT025H.grib2 2026-04-24 02:48 972K
20260424T00Z_MSC_RDPS_WindDir_AGL-120m_RLatLon0.09_PT025H.grib2 2026-04-24 02:48 613K
20260424T00Z_MSC_RDPS_WindDir_AGL-40m_RLatLon0.09_PT025H.grib2 2026-04-24 02:48 639K
20260424T00Z_MSC_RDPS_WindDir_AGL-80m_RLatLon0.09_PT025H.grib2 2026-04-24 02:48 624K
20260424T00Z_MSC_RDPS_WindDir_IsbL-0001_RLatLon0.09_PT025H.grib2 2026-04-24 02:48 270K
20260424T00Z_MSC_RDPS_WindDir_IsbL-0005_RLatLon0.09_PT025H.grib2 2026-04-24 02:48 381K
20260424T00Z_MSC_RDPS_WindDir_IsbL-0010_RLatLon0.09_PT025H.grib2 2026-04-24 02:48 397K
20260424T00Z_MSC_RDPS_WindDir_IsbL-0020_RLatLon0.09_PT025H.grib2 2026-04-24 02:48 420K
20260424T00Z_MSC_RDPS_WindDir_IsbL-0030_RLatLon0.09_PT025H.grib2 2026-04-24 02:48 402K
20260424T00Z_MSC_RDPS_WindDir_IsbL-0050_RLatLon0.09_PT025H.grib2 2026-04-24 02:48 441K
20260424T00Z_MSC_RDPS_WindDir_IsbL-0100_RLatLon0.09_PT025H.grib2 2026-04-24 02:48 441K
20260424T00Z_MSC_RDPS_WindDir_IsbL-0150_RLatLon0.09_PT025H.grib2 2026-04-24 02:48 434K
20260424T00Z_MSC_RDPS_WindDir_IsbL-0175_RLatLon0.09_PT025H.grib2 2026-04-24 02:48 450K
20260424T00Z_MSC_RDPS_WindDir_IsbL-0200_RLatLon0.09_PT025H.grib2 2026-04-24 02:48 452K
20260424T00Z_MSC_RDPS_WindDir_IsbL-0225_RLatLon0.09_PT025H.grib2 2026-04-24 02:48 443K
20260424T00Z_MSC_RDPS_WindDir_IsbL-0250_RLatLon0.09_PT025H.grib2 2026-04-24 02:48 440K
20260424T00Z_MSC_RDPS_WindDir_IsbL-0275_RLatLon0.09_PT025H.grib2 2026-04-24 02:48 467K
20260424T00Z_MSC_RDPS_WindDir_IsbL-0300_RLatLon0.09_PT025H.grib2 2026-04-24 02:48 468K
20260424T00Z_MSC_RDPS_WindDir_IsbL-0350_RLatLon0.09_PT025H.grib2 2026-04-24 02:48 492K
20260424T00Z_MSC_RDPS_WindDir_IsbL-0400_RLatLon0.09_PT025H.grib2 2026-04-24 02:48 515K
20260424T00Z_MSC_RDPS_WindDir_IsbL-0450_RLatLon0.09_PT025H.grib2 2026-04-24 02:48 528K
20260424T00Z_MSC_RDPS_WindDir_IsbL-0500_RLatLon0.09_PT025H.grib2 2026-04-24 02:48 542K
20260424T00Z_MSC_RDPS_WindDir_IsbL-0550_RLatLon0.09_PT025H.grib2 2026-04-24 02:48 566K
20260424T00Z_MSC_RDPS_WindDir_IsbL-0600_RLatLon0.09_PT025H.grib2 2026-04-24 02:48 598K
20260424T00Z_MSC_RDPS_WindDir_IsbL-0650_RLatLon0.09_PT025H.grib2 2026-04-24 02:48 642K
20260424T00Z_MSC_RDPS_WindDir_IsbL-0700_RLatLon0.09_PT025H.grib2 2026-04-24 02:48 688K
20260424T00Z_MSC_RDPS_WindDir_IsbL-0750_RLatLon0.09_PT025H.grib2 2026-04-24 02:48 738K
20260424T00Z_MSC_RDPS_WindDir_IsbL-0800_RLatLon0.09_PT025H.grib2 2026-04-24 02:48 805K
20260424T00Z_MSC_RDPS_WindDir_IsbL-0850_RLatLon0.09_PT025H.grib2 2026-04-24 02:48 876K
20260424T00Z_MSC_RDPS_WindDir_IsbL-0875_RLatLon0.09_PT025H.grib2 2026-04-24 02:48 902K
20260424T00Z_MSC_RDPS_WindDir_IsbL-0900_RLatLon0.09_PT025H.grib2 2026-04-24 02:48 912K
20260424T00Z_MSC_RDPS_WindDir_IsbL-0925_RLatLon0.09_PT025H.grib2 2026-04-24 02:48 916K
20260424T00Z_MSC_RDPS_WindDir_IsbL-0950_RLatLon0.09_PT025H.grib2 2026-04-24 02:48 913K
20260424T00Z_MSC_RDPS_WindDir_IsbL-0970_RLatLon0.09_PT025H.grib2 2026-04-24 02:48 922K
20260424T00Z_MSC_RDPS_WindDir_IsbL-0985_RLatLon0.09_PT025H.grib2 2026-04-24 02:48 935K
20260424T00Z_MSC_RDPS_WindDir_IsbL-1000_RLatLon0.09_PT025H.grib2 2026-04-24 02:48 950K
20260424T00Z_MSC_RDPS_WindDir_IsbL-1015_RLatLon0.09_PT025H.grib2 2026-04-24 02:48 964K
20260424T00Z_MSC_RDPS_WindGust-Max_AGL-10m_RLatLon0.09_PT025H.grib2 2026-04-24 02:48 1.0M
20260424T00Z_MSC_RDPS_WindGust-Min_AGL-10m_RLatLon0.09_PT025H.grib2 2026-04-24 02:48 965K
20260424T00Z_MSC_RDPS_WindGust_AGL-10m_RLatLon0.09_PT025H.grib2 2026-04-24 02:48 1.0M
20260424T00Z_MSC_RDPS_WindSpeed_AGL-10m_RLatLon0.09_PT025H.grib2 2026-04-24 02:48 841K
20260424T00Z_MSC_RDPS_WindSpeed_AGL-120m_RLatLon0.09_PT025H.grib2 2026-04-24 02:48 536K
20260424T00Z_MSC_RDPS_WindSpeed_AGL-40m_RLatLon0.09_PT025H.grib2 2026-04-24 02:48 671K
20260424T00Z_MSC_RDPS_WindSpeed_AGL-80m_RLatLon0.09_PT025H.grib2 2026-04-24 02:48 538K
20260424T00Z_MSC_RDPS_WindSpeed_IsbL-0001_RLatLon0.09_PT025H.grib2 2026-04-24 02:48 251K
20260424T00Z_MSC_RDPS_WindSpeed_IsbL-0005_RLatLon0.09_PT025H.grib2 2026-04-24 02:48 299K
20260424T00Z_MSC_RDPS_WindSpeed_IsbL-0010_RLatLon0.09_PT025H.grib2 2026-04-24 02:48 314K
20260424T00Z_MSC_RDPS_WindSpeed_IsbL-0020_RLatLon0.09_PT025H.grib2 2026-04-24 02:48 429K
20260424T00Z_MSC_RDPS_WindSpeed_IsbL-0030_RLatLon0.09_PT025H.grib2 2026-04-24 02:48 332K
20260424T00Z_MSC_RDPS_WindSpeed_IsbL-0050_RLatLon0.09_PT025H.grib2 2026-04-24 02:48 368K
20260424T00Z_MSC_RDPS_WindSpeed_IsbL-0100_RLatLon0.09_PT025H.grib2 2026-04-24 02:48 487K
20260424T00Z_MSC_RDPS_WindSpeed_IsbL-0150_RLatLon0.09_PT025H.grib2 2026-04-24 02:48 392K
20260424T00Z_MSC_RDPS_WindSpeed_IsbL-0175_RLatLon0.09_PT025H.grib2 2026-04-24 02:48 443K
20260424T00Z_MSC_RDPS_WindSpeed_IsbL-0200_RLatLon0.09_PT025H.grib2 2026-04-24 02:48 459K
20260424T00Z_MSC_RDPS_WindSpeed_IsbL-0225_RLatLon0.09_PT025H.grib2 2026-04-24 02:48 465K
20260424T00Z_MSC_RDPS_WindSpeed_IsbL-0250_RLatLon0.09_PT025H.grib2 2026-04-24 02:48 463K
20260424T00Z_MSC_RDPS_WindSpeed_IsbL-0275_RLatLon0.09_PT025H.grib2 2026-04-24 02:48 479K
20260424T00Z_MSC_RDPS_WindSpeed_IsbL-0300_RLatLon0.09_PT025H.grib2 2026-04-24 02:48 476K
20260424T00Z_MSC_RDPS_WindSpeed_IsbL-0350_RLatLon0.09_PT025H.grib2 2026-04-24 02:48 486K
20260424T00Z_MSC_RDPS_WindSpeed_IsbL-0400_RLatLon0.09_PT025H.grib2 2026-04-24 02:48 486K
20260424T00Z_MSC_RDPS_WindSpeed_IsbL-0450_RLatLon0.09_PT025H.grib2 2026-04-24 02:48 468K
20260424T00Z_MSC_RDPS_WindSpeed_IsbL-0500_RLatLon0.09_PT025H.grib2 2026-04-24 02:48 469K
20260424T00Z_MSC_RDPS_WindSpeed_IsbL-0550_RLatLon0.09_PT025H.grib2 2026-04-24 02:48 590K
20260424T00Z_MSC_RDPS_WindSpeed_IsbL-0600_RLatLon0.09_PT025H.grib2 2026-04-24 02:48 601K
20260424T00Z_MSC_RDPS_WindSpeed_IsbL-0650_RLatLon0.09_PT025H.grib2 2026-04-24 02:48 622K
20260424T00Z_MSC_RDPS_WindSpeed_IsbL-0700_RLatLon0.09_PT025H.grib2 2026-04-24 02:48 688K
20260424T00Z_MSC_RDPS_WindSpeed_IsbL-0750_RLatLon0.09_PT025H.grib2 2026-04-24 02:48 720K
20260424T00Z_MSC_RDPS_WindSpeed_IsbL-0800_RLatLon0.09_PT025H.grib2 2026-04-24 02:48 724K
20260424T00Z_MSC_RDPS_WindSpeed_IsbL-0850_RLatLon0.09_PT025H.grib2 2026-04-24 02:48 773K
20260424T00Z_MSC_RDPS_WindSpeed_IsbL-0875_RLatLon0.09_PT025H.grib2 2026-04-24 02:48 790K
20260424T00Z_MSC_RDPS_WindSpeed_IsbL-0900_RLatLon0.09_PT025H.grib2 2026-04-24 02:48 849K
20260424T00Z_MSC_RDPS_WindSpeed_IsbL-0925_RLatLon0.09_PT025H.grib2 2026-04-24 02:48 860K
20260424T00Z_MSC_RDPS_WindSpeed_IsbL-0950_RLatLon0.09_PT025H.grib2 2026-04-24 02:48 859K
20260424T00Z_MSC_RDPS_WindSpeed_IsbL-0970_RLatLon0.09_PT025H.grib2 2026-04-24 02:48 860K
20260424T00Z_MSC_RDPS_WindSpeed_IsbL-0985_RLatLon0.09_PT025H.grib2 2026-04-24 02:48 856K
20260424T00Z_MSC_RDPS_WindSpeed_IsbL-1000_RLatLon0.09_PT025H.grib2 2026-04-24 02:48 850K
20260424T00Z_MSC_RDPS_WindSpeed_IsbL-1015_RLatLon0.09_PT025H.grib2 2026-04-24 02:48 842K
20260424T00Z_MSC_RDPS_WindU_AGL-10m_RLatLon0.09_PT025H.grib2 2026-04-24 02:48 433K
20260424T00Z_MSC_RDPS_WindU_AGL-120m_RLatLon0.09_PT025H.grib2 2026-04-24 02:48 535K
20260424T00Z_MSC_RDPS_WindU_AGL-40m_RLatLon0.09_PT025H.grib2 2026-04-24 02:48 539K
20260424T00Z_MSC_RDPS_WindU_AGL-80m_RLatLon0.09_PT025H.grib2 2026-04-24 02:48 537K
20260424T00Z_MSC_RDPS_WindU_IsbL-0001_RLatLon0.09_PT025H.grib2 2026-04-24 02:48 244K
20260424T00Z_MSC_RDPS_WindU_IsbL-0005_RLatLon0.09_PT025H.grib2 2026-04-24 02:48 333K
20260424T00Z_MSC_RDPS_WindU_IsbL-0010_RLatLon0.09_PT025H.grib2 2026-04-24 02:48 345K
20260424T00Z_MSC_RDPS_WindU_IsbL-0020_RLatLon0.09_PT025H.grib2 2026-04-24 02:48 322K
20260424T00Z_MSC_RDPS_WindU_IsbL-0030_RLatLon0.09_PT025H.grib2 2026-04-24 02:48 363K
20260424T00Z_MSC_RDPS_WindU_IsbL-0050_RLatLon0.09_PT025H.grib2 2026-04-24 02:48 361K
20260424T00Z_MSC_RDPS_WindU_IsbL-0100_RLatLon0.09_PT025H.grib2 2026-04-24 02:48 442K
20260424T00Z_MSC_RDPS_WindU_IsbL-0150_RLatLon0.09_PT025H.grib2 2026-04-24 02:48 386K
20260424T00Z_MSC_RDPS_WindU_IsbL-0175_RLatLon0.09_PT025H.grib2 2026-04-24 02:48 438K
20260424T00Z_MSC_RDPS_WindU_IsbL-0200_RLatLon0.09_PT025H.grib2 2026-04-24 02:48 455K
20260424T00Z_MSC_RDPS_WindU_IsbL-0225_RLatLon0.09_PT025H.grib2 2026-04-24 02:48 456K
20260424T00Z_MSC_RDPS_WindU_IsbL-0250_RLatLon0.09_PT025H.grib2 2026-04-24 02:48 352K
20260424T00Z_MSC_RDPS_WindU_IsbL-0275_RLatLon0.09_PT025H.grib2 2026-04-24 02:48 365K
20260424T00Z_MSC_RDPS_WindU_IsbL-0300_RLatLon0.09_PT025H.grib2 2026-04-24 02:48 361K
20260424T00Z_MSC_RDPS_WindU_IsbL-0350_RLatLon0.09_PT025H.grib2 2026-04-24 02:48 369K
20260424T00Z_MSC_RDPS_WindU_IsbL-0400_RLatLon0.09_PT025H.grib2 2026-04-24 02:48 371K
20260424T00Z_MSC_RDPS_WindU_IsbL-0450_RLatLon0.09_PT025H.grib2 2026-04-24 02:48 473K
20260424T00Z_MSC_RDPS_WindU_IsbL-0500_RLatLon0.09_PT025H.grib2 2026-04-24 02:48 475K
20260424T00Z_MSC_RDPS_WindU_IsbL-0550_RLatLon0.09_PT025H.grib2 2026-04-24 02:48 478K
20260424T00Z_MSC_RDPS_WindU_IsbL-0600_RLatLon0.09_PT025H.grib2 2026-04-24 02:48 488K
20260424T00Z_MSC_RDPS_WindU_IsbL-0650_RLatLon0.09_PT025H.grib2 2026-04-24 02:48 507K
20260424T00Z_MSC_RDPS_WindU_IsbL-0700_RLatLon0.09_PT025H.grib2 2026-04-24 02:48 512K
20260424T00Z_MSC_RDPS_WindU_IsbL-0750_RLatLon0.09_PT025H.grib2 2026-04-24 02:48 539K
20260424T00Z_MSC_RDPS_WindU_IsbL-0800_RLatLon0.09_PT025H.grib2 2026-04-24 02:48 582K
20260424T00Z_MSC_RDPS_WindU_IsbL-0850_RLatLon0.09_PT025H.grib2 2026-04-24 02:48 626K
20260424T00Z_MSC_RDPS_WindU_IsbL-0875_RLatLon0.09_PT025H.grib2 2026-04-24 02:48 648K
20260424T00Z_MSC_RDPS_WindU_IsbL-0900_RLatLon0.09_PT025H.grib2 2026-04-24 02:48 657K
20260424T00Z_MSC_RDPS_WindU_IsbL-0925_RLatLon0.09_PT025H.grib2 2026-04-24 02:48 658K
20260424T00Z_MSC_RDPS_WindU_IsbL-0950_RLatLon0.09_PT025H.grib2 2026-04-24 02:48 656K
20260424T00Z_MSC_RDPS_WindU_IsbL-0970_RLatLon0.09_PT025H.grib2 2026-04-24 02:48 657K
20260424T00Z_MSC_RDPS_WindU_IsbL-0985_RLatLon0.09_PT025H.grib2 2026-04-24 02:48 654K
20260424T00Z_MSC_RDPS_WindU_IsbL-1000_RLatLon0.09_PT025H.grib2 2026-04-24 02:48 788K
20260424T00Z_MSC_RDPS_WindU_IsbL-1015_RLatLon0.09_PT025H.grib2 2026-04-24 02:48 781K
20260424T00Z_MSC_RDPS_WindV_AGL-10m_RLatLon0.09_PT025H.grib2 2026-04-24 02:48 431K
20260424T00Z_MSC_RDPS_WindV_AGL-120m_RLatLon0.09_PT025H.grib2 2026-04-24 02:48 417K
20260424T00Z_MSC_RDPS_WindV_AGL-40m_RLatLon0.09_PT025H.grib2 2026-04-24 02:48 536K
20260424T00Z_MSC_RDPS_WindV_AGL-80m_RLatLon0.09_PT025H.grib2 2026-04-24 02:48 534K
20260424T00Z_MSC_RDPS_WindV_IsbL-0001_RLatLon0.09_PT025H.grib2 2026-04-24 02:48 244K
20260424T00Z_MSC_RDPS_WindV_IsbL-0005_RLatLon0.09_PT025H.grib2 2026-04-24 02:48 291K
20260424T00Z_MSC_RDPS_WindV_IsbL-0010_RLatLon0.09_PT025H.grib2 2026-04-24 02:48 305K
20260424T00Z_MSC_RDPS_WindV_IsbL-0020_RLatLon0.09_PT025H.grib2 2026-04-24 02:48 324K
20260424T00Z_MSC_RDPS_WindV_IsbL-0030_RLatLon0.09_PT025H.grib2 2026-04-24 02:48 325K
20260424T00Z_MSC_RDPS_WindV_IsbL-0050_RLatLon0.09_PT025H.grib2 2026-04-24 02:48 361K
20260424T00Z_MSC_RDPS_WindV_IsbL-0100_RLatLon0.09_PT025H.grib2 2026-04-24 02:48 341K
20260424T00Z_MSC_RDPS_WindV_IsbL-0150_RLatLon0.09_PT025H.grib2 2026-04-24 02:48 404K
20260424T00Z_MSC_RDPS_WindV_IsbL-0175_RLatLon0.09_PT025H.grib2 2026-04-24 02:48 336K
20260424T00Z_MSC_RDPS_WindV_IsbL-0200_RLatLon0.09_PT025H.grib2 2026-04-24 02:48 349K
20260424T00Z_MSC_RDPS_WindV_IsbL-0225_RLatLon0.09_PT025H.grib2 2026-04-24 02:48 351K
20260424T00Z_MSC_RDPS_WindV_IsbL-0250_RLatLon0.09_PT025H.grib2 2026-04-24 02:48 349K
20260424T00Z_MSC_RDPS_WindV_IsbL-0275_RLatLon0.09_PT025H.grib2 2026-04-24 02:48 362K
20260424T00Z_MSC_RDPS_WindV_IsbL-0300_RLatLon0.09_PT025H.grib2 2026-04-24 02:48 358K
20260424T00Z_MSC_RDPS_WindV_IsbL-0350_RLatLon0.09_PT025H.grib2 2026-04-24 02:48 365K
20260424T00Z_MSC_RDPS_WindV_IsbL-0400_RLatLon0.09_PT025H.grib2 2026-04-24 02:48 367K
20260424T00Z_MSC_RDPS_WindV_IsbL-0450_RLatLon0.09_PT025H.grib2 2026-04-24 02:48 471K
20260424T00Z_MSC_RDPS_WindV_IsbL-0500_RLatLon0.09_PT025H.grib2 2026-04-24 02:48 473K
20260424T00Z_MSC_RDPS_WindV_IsbL-0550_RLatLon0.09_PT025H.grib2 2026-04-24 02:48 476K
20260424T00Z_MSC_RDPS_WindV_IsbL-0600_RLatLon0.09_PT025H.grib2 2026-04-24 02:48 484K
20260424T00Z_MSC_RDPS_WindV_IsbL-0650_RLatLon0.09_PT025H.grib2 2026-04-24 02:48 502K
20260424T00Z_MSC_RDPS_WindV_IsbL-0700_RLatLon0.09_PT025H.grib2 2026-04-24 02:48 521K
20260424T00Z_MSC_RDPS_WindV_IsbL-0750_RLatLon0.09_PT025H.grib2 2026-04-24 02:48 546K
20260424T00Z_MSC_RDPS_WindV_IsbL-0800_RLatLon0.09_PT025H.grib2 2026-04-24 02:48 575K
20260424T00Z_MSC_RDPS_WindV_IsbL-0850_RLatLon0.09_PT025H.grib2 2026-04-24 02:48 619K
20260424T00Z_MSC_RDPS_WindV_IsbL-0875_RLatLon0.09_PT025H.grib2 2026-04-24 02:48 634K
20260424T00Z_MSC_RDPS_WindV_IsbL-0900_RLatLon0.09_PT025H.grib2 2026-04-24 02:48 645K
20260424T00Z_MSC_RDPS_WindV_IsbL-0925_RLatLon0.09_PT025H.grib2 2026-04-24 02:48 653K
20260424T00Z_MSC_RDPS_WindV_IsbL-0950_RLatLon0.09_PT025H.grib2 2026-04-24 02:48 651K
20260424T00Z_MSC_RDPS_WindV_IsbL-0970_RLatLon0.09_PT025H.grib2 2026-04-24 02:48 651K
20260424T00Z_MSC_RDPS_WindV_IsbL-0985_RLatLon0.09_PT025H.grib2 2026-04-24 02:48 650K
20260424T00Z_MSC_RDPS_WindV_IsbL-1000_RLatLon0.09_PT025H.grib2 2026-04-24 02:48 783K
20260424T00Z_MSC_RDPS_WindV_IsbL-1015_RLatLon0.09_PT025H.grib2 2026-04-24 02:48 777K